GFRAS EGPD-EGPH

Flight info

Callsign GFRAS
Flight time 0h 43m
Altitude 3500
Route VFR STONEHAVEN KELTY EGPH
Aircraft C210/L-VGD/A

Departure

Time 2026-04-23 14:45
Airport Aberdeen International Airport (EGPD)

Arrival

Time 2026-04-23 15:29
Airport Edinburgh Airport (EGPH)
Time Latitude Longitude Altitude Speed Heading
2026-04-23 14:37 57.20340 -2.19503 219 ft 0 kts 242°
2026-04-23 14:42 57.20338 -2.19512 219 ft 1 kts 256°
2026-04-23 14:42 57.20341 -2.19545 219 ft 3 kts 280°
2026-04-23 14:43 57.20346 -2.19601 219 ft 5 kts 278°
2026-04-23 14:43 57.20351 -2.19688 219 ft 7 kts 274°
2026-04-23 14:43 57.20349 -2.19798 219 ft 9 kts 248°
2026-04-23 14:43 57.20303 -2.19856 219 ft 8 kts 167°
2026-04-23 14:44 57.20295 -2.19850 219 ft 0 kts 158°
2026-04-23 14:44 57.20255 -2.19821 219 ft 25 kts 159°
2026-04-23 14:44 57.19932 -2.19575 219 ft 71 kts 159°
2026-04-23 14:44 57.19432 -2.19211 339 ft 74 kts 161°
2026-04-23 14:45 57.18967 -2.18854 497 ft 72 kts 143°
2026-04-23 14:45 57.18601 -2.18107 636 ft 86 kts 133°
2026-04-23 14:45 57.18162 -2.17320 838 ft 91 kts 137°
2026-04-23 14:45 57.17645 -2.16543 1072 ft 96 kts 143°
2026-04-23 14:46 57.17126 -2.15799 1328 ft 97 kts 141°
2026-04-23 14:46 57.16587 -2.15000 1557 ft 99 kts 147°
2026-04-23 14:46 57.15992 -2.14355 1807 ft 100 kts 154°
2026-04-23 14:46 57.15384 -2.13762 2051 ft 101 kts 147°
2026-04-23 14:47 57.14708 -2.13049 2058 ft 122 kts 154°
2026-04-23 14:47 57.13883 -2.12390 2094 ft 134 kts 161°
2026-04-23 14:47 57.12962 -2.12006 2176 ft 142 kts 171°
2026-04-23 14:47 57.11950 -2.11979 2236 ft 149 kts 182°
2026-04-23 14:48 57.10890 -2.12198 2229 ft 153 kts 186°
2026-04-23 14:48 57.09826 -2.12453 2203 ft 157 kts 186°
2026-04-23 14:48 57.08737 -2.12756 2197 ft 157 kts 188°
2026-04-23 14:48 57.07666 -2.13052 2215 ft 154 kts 189°
2026-04-23 14:49 57.06600 -2.13374 2166 ft 158 kts 188°
2026-04-23 14:49 57.05527 -2.13859 2122 ft 161 kts 192°
2026-04-23 14:49 57.04444 -2.14404 2128 ft 158 kts 196°
2026-04-23 14:49 57.03394 -2.14969 2140 ft 157 kts 195°
2026-04-23 14:50 57.02377 -2.15581 2227 ft 151 kts 198°
2026-04-23 14:50 57.01385 -2.16195 2191 ft 155 kts 197°
2026-04-23 14:50 57.00343 -2.16840 2158 ft 156 kts 197°
2026-04-23 14:50 56.99324 -2.17447 2180 ft 155 kts 194°
2026-04-23 14:51 56.98296 -2.18053 2200 ft 154 kts 195°
2026-04-23 14:51 56.97292 -2.18611 2237 ft 151 kts 193°
2026-04-23 14:51 56.96254 -2.19165 2130 ft 160 kts 192°
2026-04-23 14:51 56.95162 -2.19725 2116 ft 159 kts 194°
2026-04-23 14:52 56.94106 -2.20271 2131 ft 157 kts 194°
2026-04-23 14:52 56.93076 -2.20800 2168 ft 153 kts 194°
2026-04-23 14:52 56.92027 -2.21314 2077 ft 159 kts 191°
2026-04-23 14:52 56.90938 -2.21779 2043 ft 159 kts 191°
2026-04-23 14:53 56.89909 -2.22360 2150 ft 152 kts 194°
2026-04-23 14:53 56.88900 -2.22973 2129 ft 154 kts 197°
2026-04-23 14:53 56.87886 -2.23666 2114 ft 157 kts 197°
2026-04-23 14:53 56.86870 -2.24409 2132 ft 157 kts 199°
2026-04-23 14:54 56.85902 -2.25276 2168 ft 155 kts 205°
2026-04-23 14:54 56.84951 -2.26210 2182 ft 155 kts 205°
2026-04-23 14:54 56.84032 -2.27167 2239 ft 153 kts 206°
2026-04-23 14:54 56.83114 -2.28263 2207 ft 159 kts 212°
2026-04-23 14:55 56.82235 -2.29426 2226 ft 158 kts 213°
2026-04-23 14:55 56.81350 -2.30661 2212 ft 161 kts 214°
2026-04-23 14:55 56.80444 -2.31921 2147 ft 164 kts 213°
2026-04-23 14:55 56.79563 -2.33147 2305 ft 152 kts 214°
2026-04-23 14:56 56.78689 -2.34280 2230 ft 158 kts 211°
2026-04-23 14:56 56.77778 -2.35452 2240 ft 160 kts 214°
2026-04-23 14:56 56.76908 -2.36672 2334 ft 156 kts 211°
2026-04-23 14:56 56.76017 -2.37697 2469 ft 151 kts 208°
2026-04-23 14:57 56.75106 -2.38721 2473 ft 153 kts 207°
2026-04-23 14:57 56.74159 -2.39775 2235 ft 171 kts 209°
2026-04-23 14:57 56.73160 -2.40906 2218 ft 167 kts 207°
2026-04-23 14:57 56.72169 -2.41966 2201 ft 167 kts 206°
2026-04-23 14:58 56.71167 -2.43001 2283 ft 160 kts 205°
2026-04-23 14:58 56.70222 -2.43993 2344 ft 158 kts 205°
2026-04-23 14:58 56.69260 -2.44993 2351 ft 159 kts 205°
2026-04-23 14:58 56.68286 -2.45950 2387 ft 158 kts 203°
2026-04-23 14:59 56.67311 -2.46865 2390 ft 160 kts 201°
2026-04-23 14:59 56.66283 -2.47738 2385 ft 161 kts 200°
2026-04-23 14:59 56.65290 -2.48636 2466 ft 159 kts 202°
2026-04-23 14:59 56.64305 -2.49546 2446 ft 162 kts 202°
2026-04-23 15:00 56.63293 -2.50489 2486 ft 161 kts 201°
2026-04-23 15:00 56.62299 -2.51401 2529 ft 161 kts 201°
2026-04-23 15:00 56.61286 -2.52310 2522 ft 163 kts 201°
2026-04-23 15:00 56.60287 -2.53294 2542 ft 163 kts 205°
2026-04-23 15:01 56.59320 -2.54373 2558 ft 164 kts 207°
2026-04-23 15:01 56.58360 -2.55490 2573 ft 164 kts 208°
2026-04-23 15:01 56.57407 -2.56652 2571 ft 166 kts 210°
2026-04-23 15:01 56.56483 -2.57881 2591 ft 166 kts 213°
2026-04-23 15:02 56.55590 -2.59237 2602 ft 167 kts 217°
2026-04-23 15:02 56.54726 -2.60633 2609 ft 167 kts 217°
2026-04-23 15:02 56.53853 -2.62069 2617 ft 168 kts 218°
2026-04-23 15:02 56.53009 -2.63506 2629 ft 168 kts 219°
2026-04-23 15:03 56.52177 -2.64997 2631 ft 169 kts 220°
2026-04-23 15:03 56.51370 -2.66549 2620 ft 170 kts 222°
2026-04-23 15:03 56.50596 -2.68193 2631 ft 170 kts 226°
2026-04-23 15:03 56.49886 -2.69909 2628 ft 172 kts 230°
2026-04-23 15:04 56.49236 -2.71768 2622 ft 173 kts 235°
2026-04-23 15:04 56.48694 -2.73716 2625 ft 175 kts 242°
2026-04-23 15:04 56.48262 -2.75781 2623 ft 176 kts 246°
2026-04-23 15:04 56.47875 -2.77903 2629 ft 176 kts 247°
2026-04-23 15:05 56.47489 -2.79988 2631 ft 176 kts 246°
2026-04-23 15:05 56.47080 -2.82092 2629 ft 176 kts 246°
2026-04-23 15:05 56.46713 -2.84195 2633 ft 176 kts 249°
2026-04-23 15:05 56.46391 -2.86352 2636 ft 177 kts 252°
2026-04-23 15:06 56.46086 -2.88484 2635 ft 177 kts 249°
2026-04-23 15:06 56.45682 -2.90582 2636 ft 175 kts 244°
2026-04-23 15:06 56.45231 -2.92640 2644 ft 175 kts 243°
2026-04-23 15:06 56.44766 -2.94652 2646 ft 174 kts 242°
2026-04-23 15:07 56.44278 -2.96662 2647 ft 174 kts 241°
2026-04-23 15:07 56.43766 -2.98639 2651 ft 173 kts 240°
2026-04-23 15:07 56.43236 -3.00624 2652 ft 173 kts 240°
2026-04-23 15:07 56.42708 -3.02579 2656 ft 173 kts 240°
2026-04-23 15:08 56.42193 -3.04541 2635 ft 174 kts 240°
2026-04-23 15:08 56.41654 -3.06509 2597 ft 175 kts 239°
2026-04-23 15:08 56.41066 -3.08454 2597 ft 173 kts 236°
2026-04-23 15:09 56.39829 -3.12085 2631 ft 171 kts 234°
2026-04-23 15:09 56.39182 -3.13917 2617 ft 172 kts 234°
2026-04-23 15:09 56.38543 -3.15748 2624 ft 171 kts 235°
2026-04-23 15:09 56.37941 -3.17626 2585 ft 174 kts 237°
2026-04-23 15:10 56.37550 -3.18907 2558 ft 175 kts 238°
2026-04-23 15:10 56.36805 -3.21501 2523 ft 175 kts 240°
2026-04-23 15:10 56.36271 -3.23486 2513 ft 175 kts 241°
2026-04-23 15:10 56.35749 -3.25489 2488 ft 175 kts 242°
2026-04-23 15:11 56.35250 -3.27480 2467 ft 176 kts 243°
2026-04-23 15:11 56.34752 -3.29513 2449 ft 175 kts 243°
2026-04-23 15:11 56.34264 -3.31502 2430 ft 176 kts 244°
2026-04-23 15:11 56.33773 -3.33526 2412 ft 175 kts 242°
2026-04-23 15:12 56.33174 -3.35418 2382 ft 174 kts 231°
2026-04-23 15:12 56.32360 -3.37027 2336 ft 173 kts 219°
2026-04-23 15:12 56.31455 -3.38447 2346 ft 170 kts 216°
2026-04-23 15:12 56.30510 -3.39705 2292 ft 171 kts 207°
2026-04-23 15:13 56.29411 -3.40517 2205 ft 171 kts 192°
2026-04-23 15:13 56.28268 -3.41038 2253 ft 165 kts 189°
2026-04-23 15:13 56.27145 -3.41450 2207 ft 164 kts 186°
2026-04-23 15:13 56.26039 -3.41818 2182 ft 163 kts 187°
2026-04-23 15:14 56.24927 -3.42222 2128 ft 163 kts 188°
2026-04-23 15:14 56.23788 -3.42639 1961 ft 173 kts 189°
2026-04-23 15:14 56.22597 -3.43042 1929 ft 170 kts 188°
2026-04-23 15:14 56.21433 -3.43359 1938 ft 166 kts 183°
2026-04-23 15:15 56.20298 -3.43362 1915 ft 162 kts 172°
2026-04-23 15:15 56.19195 -3.43101 1908 ft 159 kts 169°
2026-04-23 15:15 56.18118 -3.42827 1882 ft 154 kts 170°
2026-04-23 15:15 56.17083 -3.42567 1839 ft 147 kts 170°
2026-04-23 15:16 56.16085 -3.42305 1773 ft 143 kts 169°
2026-04-23 15:16 56.15116 -3.42030 1753 ft 137 kts 168°
2026-04-23 15:16 56.14201 -3.41741 1734 ft 132 kts 167°
2026-04-23 15:16 56.13318 -3.41474 1704 ft 126 kts 168°
2026-04-23 15:17 56.12461 -3.41222 1675 ft 121 kts 167°
2026-04-23 15:17 56.11641 -3.40955 1658 ft 120 kts 165°
2026-04-23 15:17 56.10831 -3.40679 1672 ft 119 kts 166°
2026-04-23 15:17 56.10007 -3.40452 1668 ft 120 kts 168°
2026-04-23 15:18 56.09201 -3.40181 1675 ft 119 kts 163°
2026-04-23 15:18 56.08379 -3.39878 1678 ft 119 kts 165°
2026-04-23 15:18 56.07575 -3.39586 1681 ft 119 kts 165°
2026-04-23 15:18 56.06764 -3.39311 1690 ft 119 kts 166°
2026-04-23 15:19 56.05946 -3.39077 1693 ft 119 kts 168°
2026-04-23 15:19 56.05110 -3.38868 1702 ft 119 kts 168°
2026-04-23 15:19 56.04300 -3.38660 1705 ft 119 kts 167°
2026-04-23 15:19 56.03478 -3.38449 1692 ft 119 kts 169°
2026-04-23 15:20 56.02653 -3.38233 1626 ft 121 kts 166°
2026-04-23 15:20 56.01824 -3.37985 1584 ft 120 kts 168°
2026-04-23 15:20 56.00989 -3.37796 1541 ft 120 kts 168°
2026-04-23 15:20 56.00169 -3.37572 1451 ft 120 kts 166°
2026-04-23 15:21 55.99345 -3.37294 1359 ft 119 kts 164°
2026-04-23 15:21 55.98536 -3.37098 1319 ft 116 kts 181°
2026-04-23 15:21 55.97807 -3.37649 1270 ft 115 kts 227°
2026-04-23 15:21 55.97566 -3.38899 1206 ft 109 kts 286°
2026-04-23 15:22 55.98033 -3.39738 1244 ft 94 kts
2026-04-23 15:22 55.98511 -3.39084 1233 ft 97 kts 72°
2026-04-23 15:22 55.98307 -3.37954 1281 ft 105 kts 130°
2026-04-23 15:22 55.97607 -3.37506 1317 ft 112 kts 180°
2026-04-23 15:23 55.96888 -3.38010 1374 ft 112 kts 219°
2026-04-23 15:23 55.96474 -3.39154 1410 ft 109 kts 262°
2026-04-23 15:23 55.96617 -3.40381 1422 ft 102 kts 316°
2026-04-23 15:23 55.97224 -3.40702 1426 ft 94 kts 26°
2026-04-23 15:24 55.97410 -3.39635 1348 ft 112 kts 116°
2026-04-23 15:24 55.96716 -3.39028 1400 ft 118 kts 182°
2026-04-23 15:24 55.96014 -3.39764 1389 ft 123 kts 228°
2026-04-23 15:24 55.95475 -3.40879 1374 ft 113 kts 232°
2026-04-23 15:25 55.94978 -3.42011 1176 ft 118 kts 238°
2026-04-23 15:25 55.94524 -3.43224 1038 ft 116 kts 239°
2026-04-23 15:25 55.94083 -3.44425 912 ft 114 kts 230°
2026-04-23 15:25 55.93419 -3.45083 839 ft 108 kts 180°
2026-04-23 15:26 55.92711 -3.44773 722 ft 105 kts 155°
2026-04-23 15:26 55.92115 -3.44203 728 ft 89 kts 117°
2026-04-23 15:26 55.92172 -3.43285 672 ft 83 kts 38°
2026-04-23 15:26 55.92695 -3.42694 584 ft 88 kts 32°
2026-04-23 15:27 55.93198 -3.42095 553 ft 86 kts 36°
2026-04-23 15:27 55.93615 -3.41361 537 ft 79 kts 58°
2026-04-23 15:27 55.93876 -3.40539 497 ft 74 kts 58°
2026-04-23 15:27 55.94146 -3.39753 407 ft 75 kts 57°
2026-04-23 15:28 55.94424 -3.38938 290 ft 76 kts 56°
2026-04-23 15:28 55.94691 -3.38158 204 ft 73 kts 58°
2026-04-23 15:28 55.94945 -3.37411 161 ft 68 kts 57°
2026-04-23 15:28 55.95169 -3.36747 138 ft 58 kts 58°
2026-04-23 15:29 55.95247 -3.36434 138 ft 10 kts 116°
2026-04-23 15:29 55.95209 -3.36372 138 ft 5 kts 151°
2026-04-23 15:29 55.95164 -3.36320 138 ft 10 kts 137°
2026-04-23 15:29 55.95131 -3.36203 138 ft 9 kts 111°
2026-04-23 15:30 55.95111 -3.36101 138 ft 7 kts 110°
2026-04-23 15:30 55.95093 -3.36013 138 ft 7 kts 117°
2026-04-23 15:30 55.95070 -3.35936 138 ft 6 kts 118°
2026-04-23 15:30 55.95049 -3.35861 138 ft 6 kts 102°
2026-04-23 15:31 55.95055 -3.35784 138 ft 6 kts 76°
2026-04-23 15:31 55.95058 -3.35710 138 ft 6 kts 107°
2026-04-23 15:31 55.95034 -3.35641 138 ft 6 kts 121°
2026-04-23 15:31 55.95011 -3.35561 138 ft 7 kts 112°
2026-04-23 15:32 55.94990 -3.35475 138 ft 7 kts 114°
2026-04-23 15:32 55.94963 -3.35390 138 ft 8 kts 121°
2026-04-23 15:32 55.94934 -3.35301 138 ft 8 kts 119°
2026-04-23 15:32 55.94906 -3.35209 138 ft 8 kts 118°
2026-04-23 15:33 55.94877 -3.35115 138 ft 8 kts 118°
2026-04-23 15:33 55.94848 -3.35019 138 ft 8 kts 117°
2026-04-23 15:33 55.94818 -3.34923 138 ft 8 kts 118°
2026-04-23 15:33 55.94788 -3.34825 138 ft 9 kts 118°
2026-04-23 15:34 55.94762 -3.34723 138 ft 8 kts 95°
2026-04-23 15:34 55.94772 -3.34621 138 ft 8 kts 126°
2026-04-23 15:34 55.94723 -3.34577 138 ft 3 kts 158°